CW5846 Weather Reports


time (UTC)temp
F
wind
direction
speed
knots
gust
knots
rain 1hr
in
rain 24hr
in
rain mn
in
humidity
%
barometer
mb
20260506112742 53 34 0.9 2.6 0.00 0.00 0.00 88 1032.6
20260506112240 53 340 0.0 3.5 0.00 0.00 0.00 88 1032.6
20260506111737 53 324 0.9 2.6 0.00 0.00 0.00 88 1032.5
20260506111235 53 353 1.7 2.6 0.00 0.00 0.00 87 1032.4
20260506110731 53 6 0.9 1.7 0.00 0.00 0.00 87 1032.4
20260506110229 53 255 3.5 5.2 0.00 0.00 0.00 87 1032.3
20260506105725 53 154 0.9 1.7 0.00 0.00 0.00 86 1032.3
20260506105223 53 349 0.9 2.6 0.00 0.00 0.00 86 1032.0
20260506104721 53 9 0.0 1.7 0.00 0.00 0.00 86 1032.2
20260506104218 53 0 0.9 0.9 0.00 0.00 0.00 86 1032.0
20260506103715 53 270 0.0 1.7 0.00 0.00 0.00 86 1031.9
20260506103212 53 297 1.7 1.7 0.00 0.00 0.00 85 1032.0
20260506102710 53 305 0.0 0.9 0.00 0.00 0.00 85 1031.9
20260506102208 53 171 0.0 0.9 0.00 0.00 0.00 85 1032.0
20260506101704 53 248 0.0 0.9 0.00 0.00 0.00 85 1031.7
20260506101201 53 341 0.0 0.9 0.00 0.00 0.00 85 1031.7
20260506100659 53 181 0.0 1.7 0.00 0.00 0.00 85 1031.5
20260506100157 53 65 0.9 1.7 0.00 0.00 0.00 85 1031.7
20260506095655 54 11 1.7 3.5 0.00 0.00 0.00 84 1031.7
20260506095151 54 278 0.0 0.9 0.00 0.00 0.00 84 1031.6
20260506094649 54 161 0.0 1.7 0.00 0.00 0.00 84 1031.4
20260506094147 54 345 0.0 0.9 0.00 0.00 0.00 84 1031.1
20260506093645 54 203 0.9 0.9 0.00 0.00 0.00 83 1031.2
20260506093142 54 319 1.7 1.7 0.00 0.00 0.00 84 1031.0
20260506092640 54 352 0.9 1.7 0.00 0.00 0.00 83 1031.0
20260506092137 54 86 0.9 2.6 0.00 0.00 0.00 83 1031.1
20260506091634 54 140 0.9 1.7 0.00 0.00 0.00 83 1030.9
20260506091132 54 1 0.0 0.9 0.00 0.00 0.00 83 1031.0
20260506090630 54 60 0.0 1.7 0.00 0.00 0.00 83 1030.9
20260506090126 54 334 0.9 0.9 0.00 0.00 0.00 83 1030.7
20260506085623 54 246 1.7 2.6 0.00 0.00 0.00 83 1030.6
20260506085119 54 327 0.9 3.5 0.00 0.00 0.00 82 1031.1
20260506084616 54 338 0.9 2.6 0.00 0.00 0.00 83 1031.3
20260506084112 54 296 0.9 1.7 0.00 0.00 0.00 82 1031.0
20260506083610 54 273 0.0 5.2 0.00 0.00 0.00 83 1031.1
20260506083107 54 171 0.9 3.5 0.00 0.00 0.00 82 1030.9
20260506082603 54 295 0.0 0.9 0.00 0.00 0.00 83 1030.5
20260506082059 54 303 1.7 1.7 0.00 0.00 0.00 82 1030.8
20260506081558 54 252 0.0 0.9 0.00 0.00 0.00 82 1030.5
20260506081054 54 304 0.0 0.9 0.00 0.00 0.00 82 1030.7
20260506080552 54 351 1.7 2.6 0.00 0.00 0.00 82 1030.8
20260506073033 54 290 0.0 1.7 0.00 0.00 0.00 81 1030.1
20260506072530 54 257 0.0 5.2 0.00 0.00 0.00 81 1030.1
20260506072027 55 339 0.0 2.6 0.00 0.00 0.00 81 1029.9
20260506071525 55 311 0.9 1.7 0.00 0.00 0.00 80 1030.4
20260506071022 55 222 0.9 1.7 0.00 0.00 0.00 80 1030.5
20260506070519 55 283 0.9 5.2 0.00 0.00 0.00 79 1030.3
20260506062457 56 292 0.9 2.6 0.00 0.00 0.00 78 1030.6
20260506061953 56 337 0.9 1.7 0.00 0.00 0.00 79 1030.6
20260506061449 56 278 0.9 1.7 0.00 0.00 0.00 78 1030.8
20260506060947 56 252 0.0 5.2 0.00 0.00 0.00 78 1030.6
20260506060445 57 119 0.9 1.7 0.00 0.00 0.00 79 1030.8
20260506050914 57 5 2.6 3.5 0.00 0.00 0.00 80 1030.5
20260506050412 57 80 0.9 2.6 0.00 0.00 0.00 79 1030.4
20260506044902 57 197 2.6 3.5 0.00 0.00 0.00 80 1030.3
20260506044400 58 87 1.7 3.5 0.00 0.00 0.00 79 1030.2
20260506043857 58 227 2.6 3.5 0.00 0.00 0.00 79 1030.4
20260506043354 58 181 0.9 1.7 0.00 0.00 0.00 80 1030.3
20260506042852 59 330 0.0 0.9 0.00 0.00 0.00 81 1030.1
20260506042351 59 112 0.9 3.5 0.00 0.00 0.00 80 1030.1
20260506041849 59 2 0.0 3.5 0.00 0.00 0.00 81 1030.2
20260506041346 59 349 1.7 2.6 0.00 0.00 0.00 81 1030.2
20260506040843 59 6 0.0 0.9 0.00 0.00 0.00 80 1030.0
20260506040340 59 341 1.7 2.6 0.00 0.00 0.00 80 1030.0
20260506035836 59 303 0.9 1.7 0.00 0.00 0.00 80 1030.1
20260506035334 59 330 1.7 3.5 0.00 0.00 0.00 80 1030.3
20260506034831 60 67 0.0 1.7 0.00 0.00 0.00 80 1029.9
20260506034328 60 21 1.7 2.6 0.00 0.00 0.00 80 1030.0
20260506033825 60 66 1.7 2.6 0.00 0.00 0.00 80 1029.9
20260506033322 60 180 0.9 2.6 0.00 0.00 0.00 81 1029.7
20260506032819 60 355 0.0 0.9 0.00 0.00 0.00 81 1029.7
20260506032316 60 325 1.7 1.7 0.00 0.00 0.00 81 1029.5
20260506031813 61 247 0.0 0.9 0.00 0.00 0.00 81 1029.6
20260506031310 61 314 1.7 2.6 0.00 0.00 0.00 81 1029.4
20260506030808 61 330 0.9 2.6 0.00 0.00 0.00 81 1029.6
20260506030306 61 76 1.7 2.6 0.00 0.00 0.00 81 1029.1
20260506025802 61 345 0.9 2.6 0.00 0.00 0.00 81 1029.0
20260506025258 61 306 1.7 1.7 0.00 0.00 0.00 80 1028.8
20260506024756 61 339 0.9 2.6 0.00 0.00 0.00 80 1028.9
20260506024252 61 338 0.9 5.2 0.00 0.00 0.00 80 1028.8
20260506023748 62 8 1.7 3.5 0.00 0.00 0.00 80 1028.7
20260506023246 62 33 1.7 2.6 0.00 0.00 0.00 81 1028.5
20260506022742 62 221 0.9 2.6 0.00 0.00 0.00 81 1028.4
20260506022240 62 14 0.9 2.6 0.00 0.00 0.00 81 1028.3
20260506021738 62 115 1.7 2.6 0.00 0.00 0.00 81 1028.1
20260506021235 63 197 0.9 3.5 0.00 0.00 0.00 80 1028.1
20260506020731 63 215 0.0 0.9 0.00 0.00 0.00 81 1028.2
20260506020229 63 332 0.9 2.6 0.00 0.00 0.00 81 1028.1
20260506015727 63 251 0.9 1.7 0.00 0.00 0.00 81 1027.9
20260506015224 63 3 1.7 3.5 0.00 0.00 0.00 80 1028.0
20260506014721 64 27 0.9 1.7 0.00 0.00 0.00 80 1028.0
20260506014217 64 341 1.7 1.7 0.00 0.00 0.00 80 1027.3
20260506013715 64 172 0.0 1.7 0.00 0.00 0.00 80 1027.2
20260506013212 65 250 1.7 2.6 0.00 0.00 0.00 80 1027.9
20260506012707 65 328 0.0 1.7 0.00 0.00 0.00 79 1027.6
20260506012205 66 163 1.7 1.7 0.00 0.00 0.00 79 1027.1
20260506011702 66 314 0.9 1.7 0.00 0.00 0.00 78 1027.3
20260506011158 67 13 0.0 1.7 0.00 0.00 0.00 78 1027.3
20260506010657 67 309 0.9 1.7 0.00 0.00 0.00 77 1027.2
20260506010153 68 271 0.0 1.7 0.00 0.00 0.00 77 1026.7
20260506005650 68 247 0.9 2.6 0.00 0.00 0.00 77 1026.8
20260506005147 69 224 0.9 3.5 0.00 0.00 0.00 76 1027.2
20260506004643 70 284 0.9 1.7 0.00 0.00 0.00 76 1026.8
20260506004141 71 173 0.9 1.7 0.00 0.00 0.00 76 1026.4
20260506003637 71 11 0.9 3.5 0.00 0.00 0.00 77 1026.7
20260506003133 72 189 0.9 2.6 0.00 0.00 0.00 75 1026.8
20260506002629 73 146 0.9 6.1 0.00 0.00 0.00 75 1026.6
20260506002125 73 94 0.9 2.6 0.00 0.00 0.00 75 1026.3
20260506001621 74 52 0.9 2.6 0.00 0.00 0.00 74 1025.7
20260506001119 75 226 1.7 3.5 0.00 0.00 0.00 72 1025.5
20260506000616 76 357 1.7 2.6 0.00 0.00 0.00 70 1025.5
20260506000113 77 62 2.6 5.2 0.00 0.00 0.00 66 1025.7
20260505235611 78 350 0.9 2.6 0.00 0.00 0.00 63 1025.7
20260505235108 78 181 0.9 2.6 0.00 0.00 0.00 63 1025.6
20260505234605 78 325 0.0 0.0 0.00 0.00 0.00 66 1024.7
20260505234102 78 4 0.0 0.9 0.00 0.00 0.00 63 1025.7
20260505233559 78 351 0.0 1.7 0.00 0.00 0.00 61 1025.6
20260505233056 79 353 0.9 1.7 0.00 0.00 0.00 60 1025.2
20260505232554 79 317 0.0 1.7 0.00 0.00 0.00 60 1025.0
20260505232052 79 335 0.0 0.9 0.00 0.00 0.00 61 1024.9
20260505231548 80 329 0.9 1.7 0.00 0.00 0.00 62 1025.1
20260505231047 80 327 2.6 3.5 0.00 0.00 0.00 59 1025.1
20260505230544 81 345 0.9 1.7 0.00 0.00 0.00 58 1025.0
20260505230040 82 300 0.9 2.6 0.00 0.00 0.00 57 1024.9
20260505225537 83 268 1.7 2.6 0.00 0.00 0.00 62 1024.9
20260505225033 85 341 1.7 1.7 0.00 0.00 0.00 70 1024.9
20260505224531 85 158 0.0 1.7 0.00 0.00 0.00 67 1024.5
20260505224028 86 49 0.0 0.9 0.00 0.00 0.00 67 1024.0
20260505223525 87 161 1.7 3.5 0.00 0.00 0.00 66 1023.9
20260505223021 87 304 0.9 1.7 0.00 0.00 0.00 64 1023.9
20260505222517 86 220 0.9 0.9 0.00 0.00 0.00 66 1024.2
20260505222013 85 173 0.0 2.6 0.00 0.00 0.00 69 1023.9
20260505221511 85 159 1.7 2.6 0.00 0.00 0.00 67 1024.0
20260505221008 85 164 2.6 6.1 0.00 0.00 0.00 68 1024.0
20260505220504 84 15 0.0 0.9 0.00 0.00 0.00 69 1024.0
20260505220002 85 207 1.7 2.6 0.00 0.00 0.00 68 1024.0
20260505215500 86 154 0.9 3.5 0.00 0.00 0.00 68 1024.3
20260505214958 86 300 0.9 1.7 0.00 0.00 0.00 66 1024.1
20260505214456 87 327 0.9 1.7 0.00 0.00 0.00 65 1024.2
20260505213952 87 292 1.7 2.6 0.00 0.00 0.00 64 1024.5
20260505213450 87 126 2.6 5.2 0.00 0.00 0.00 65 1024.6
20260505212946 87 257 2.6 5.2 0.00 0.00 0.00 65 1024.3
20260505212443 87 319 1.7 3.5 0.00 0.00 0.00 63 1024.4
20260505211939 86 254 1.7 5.2 0.00 0.00 0.00 67 1024.4
20260505211437 87 111 0.9 3.5 0.00 0.00 0.00 65 1024.5
20260505210933 86 126 1.7 2.6 0.00 0.00 0.00 66 1024.4
20260505210431 88 157 1.7 2.6 0.00 0.00 0.00 64 1024.5
20260505205927 88 105 0.9 2.6 0.00 0.00 0.00 62 1024.5
20260505205426 86 294 0.9 2.6 0.00 0.00 0.00 65 1024.6
20260505204922 87 227 2.6 3.5 0.00 0.00 0.00 65 1024.8
20260505204420 87 225 2.6 5.2 0.00 0.00 0.00 65 1024.7
20260505203917 88 300 0.9 5.2 0.00 0.00 0.00 63 1025.1
20260505203413 86 163 0.9 1.7 0.00 0.00 0.00 65 1024.6
20260505202910 85 260 1.7 3.5 0.00 0.00 0.00 66 1024.9
20260505202406 83 196 2.6 3.5 0.00 0.00 0.00 70 1025.0
20260505201903 83 182 0.9 7.8 0.00 0.00 0.00 70 1024.9
20260505201400 83 143 0.9 6.1 0.00 0.00 0.00 68 1025.1
20260505200858 83 306 0.0 0.9 0.00 0.00 0.00 68 1025.2
20260505200355 84 243 0.9 5.2 0.00 0.00 0.00 68 1025.1
20260505195850 84 97 1.7 2.6 0.00 0.00 0.00 69 1025.0
20260505195348 84 346 1.7 2.6 0.00 0.00 0.00 67 1025.3
20260505194845 83 176 1.7 3.5 0.00 0.00 0.00 69 1025.1
20260505194342 83 139 0.9 2.6 0.00 0.00 0.00 69 1025.0
20260505193837 82 204 3.5 5.2 0.00 0.00 0.00 70 1025.1
20260505193335 82 185 3.5 7.8 0.00 0.00 0.00 69 1025.1
20260505192833 83 285 1.7 6.1 0.00 0.00 0.00 69 1025.1
20260505192331 82 190 0.9 5.2 0.00 0.00 0.00 70 1024.7
20260505191828 83 224 0.9 7.0 0.00 0.00 0.00 69 1025.0
20260505191327 84 150 4.3 7.0 0.00 0.00 0.00 68 1024.9
20260505190823 84 156 2.6 5.2 0.00 0.00 0.00 67 1024.8
20260505190318 84 232 1.7 2.6 0.00 0.00 0.00 68 1024.8
20260505185815 84 175 3.5 3.5 0.00 0.00 0.00 68 1025.1
20260505185311 83 283 0.9 3.5 0.00 0.00 0.00 67 1025.0
20260505184807 84 202 2.6 5.2 0.00 0.00 0.00 68 1025.0
20260505184304 83 148 2.6 5.2 0.00 0.00 0.00 70 1025.1
20260505183801 82 87 0.0 5.2 0.00 0.00 0.00 70 1025.1
20260505183258 83 341 1.7 3.5 0.00 0.00 0.00 69 1025.1
20260505182755 82 275 2.6 3.5 0.00 0.00 0.00 69 1025.1
20260505182252 82 196 0.9 3.5 0.00 0.00 0.00 70 1025.1
20260505181748 82 185 1.7 7.0 0.00 0.00 0.00 69 1025.3
20260505181246 82 165 7.8 9.6 0.00 0.00 0.00 69 1025.3
20260505180742 82 89 0.0 5.2 0.00 0.00 0.00 71 1024.9
20260505180239 82 114 2.6 7.0 0.00 0.00 0.00 72 1025.0
20260505175735 82 134 1.7 7.8 0.00 0.00 0.00 70 1025.1
20260505175232 81 168 0.9 3.5 0.00 0.00 0.00 71 1025.0
20260505174728 81 186 5.2 9.6 0.00 0.00 0.00 71 1025.0
20260505174225 81 332 0.0 9.6 0.00 0.00 0.00 72 1025.0
20260505173721 81 239 3.5 9.6 0.00 0.00 0.00 71 1025.0
20260505173218 81 174 2.6 7.8 0.00 0.00 0.00 72 1024.8
20260505172715 80 186 1.7 2.6 0.00 0.00 0.00 73 1024.8
20260505172212 80 233 0.9 2.6 0.00 0.00 0.00 73 1024.7
20260505171712 79 355 0.9 7.0 0.00 0.00 0.00 74 1025.0
20260505171210 80 182 4.3 6.1 0.00 0.00 0.00 74 1024.3
20260505170706 79 186 0.9 2.6 0.00 0.00 0.00 74 1025.0
20260505170203 79 216 4.3 7.0 0.00 0.00 0.00 74 1024.8
20260505165703 79 261 3.5 5.2 0.00 0.00 0.00 74 1025.2
20260505165200 79 231 0.9 7.0 0.00 0.00 0.00 74 1025.4
20260505164655 79 149 1.7 5.2 0.00 0.00 0.00 74 1025.5
20260505164153 80 167 5.2 7.8 0.00 0.00 0.00 73 1025.4
20260505163651 80 342 3.5 11.3 0.00 0.00 0.00 73 1024.9
20260505163149 81 111 0.9 1.7 0.00 0.00 0.00 73 1024.7
20260505162646 80 332 0.9 5.2 0.00 0.00 0.00 74 1024.8
20260505162143 79 151 0.0 2.6 0.00 0.00 0.00 76 1024.7
20260505161640 78 185 1.7 6.1 0.00 0.00 0.00 76 1024.7
20260505161137 78 180 2.6 6.1 0.00 0.00 0.00 75 1024.8
20260505160635 78 175 2.6 7.0 0.00 0.00 0.00 75 1024.5
20260505160132 78 21 3.5 6.1 0.00 0.00 0.00 76 1024.5
20260505153112 76 223 4.3 7.8 0.00 0.00 0.00 80 1024.9
20260505152608 76 200 0.9 7.8 0.00 0.00 0.00 81 1024.9
20260505152104 75 96 1.7 3.5 0.00 0.00 0.00 81 1024.8
20260505151559 75 169 0.9 5.2 0.00 0.00 0.00 82 1024.8
20260505151057 75 168 0.9 6.1 0.00 0.00 0.00 81 1024.7
20260505150553 74 195 0.9 5.2 0.00 0.00 0.00 82 1024.8
20260505140519 73 220 1.7 7.0 0.00 0.00 0.00 84 1024.6
20260505124932 71 119 1.7 5.2 0.00 0.00 0.00 86 1024.7
20260505124429 71 155 6.1 7.0 0.00 0.00 0.00 86 1024.5
20260505123925 71 99 0.9 7.8 0.00 0.00 0.00 85 1024.5
20260505123422 71 191 0.9 5.2 0.00 0.00 0.00 86 1024.6
20260505122917 71 76 0.0 7.0 0.00 0.00 0.00 86 1024.5
20260505122415 71 198 2.6 5.2 0.00 0.00 0.00 86 1024.2
20260505121912 71 251 0.9 6.1 0.00 0.00 0.00 86 1024.2
20260505121409 71 240 5.2 8.7 0.00 0.00 0.00 86 1024.1
20260505120904 71 261 1.7 6.1 0.00 0.00 0.00 86 1024.1
20260505120401 71 131 3.5 8.7 0.00 0.00 0.00 86 1024.2
20260505115900 71 182 7.0 11.3 0.00 0.00 0.00 86 1024.2
20260505115357 71 77 0.9 2.6 0.00 0.00 0.00 86 1024.1
20260505114855 71 136 1.7 6.1 0.00 0.00 0.00 86 1024.2
20260505114351 71 117 3.5 5.2 0.00 0.00 0.00 86 1024.2
20260505113847 71 215 1.7 3.5 0.00 0.00 0.00 86 1024.2
20260505113344 71 265 0.9 5.2 0.00 0.00 0.00 86 1024.2